Location: Walnut Point State Park
(39.6958°N, 88.0345°W)
Time: 05:06:58
(UTC-05:00)

Amateur Radio Satellites - All Passes

Search period start: 19 April 2014 04:36
Search period end: 20 April 2014 04:36
Location: Walnut Point State Park, 39.6958°N, 88.0345°W

Satellite Date Start Highest point End Downlink Frequencies (MHz)
Time Altitude Azimuth
Gurwin Techsat 1B 19 Apr 04:47:59 04:52:48 36° 291° (WNW) 04:57:35 435.225 FM
AO-7 19 Apr 04:52:53 05:00:45 44° 100° (E) 05:08:35 29.400 - 29.500 MHz
KITSAT 1 19 Apr 04:57:51 05:04:48 31° 316° (NW) 05:11:49 435.175 FM
RS-15 19 Apr 05:11:23 05:18:09 18° 99° (E) 05:24:45 29.354 - 29.394 USB, Beacon 29.352 USB
JAS-1B 19 Apr 05:26:14 05:31:47 57° 288° (WNW) 05:37:31 435.800 - 435.900 CW/SSB
TMSAT-1 19 Apr 05:37:25 05:41:02 19° 297° (WNW) 05:44:39 436.925 FM
Uosat F 19 Apr 05:38:58 05:43:41 43° 290° (WNW) 05:48:22 435.120 FM
STRAND 1 19 Apr 06:31:25 06:36:29 66° 74° (ENE) 06:41:34 ?
AO-7 19 Apr 06:45:49 06:53:25 42° 298° (WNW) 07:01:02 29.400 - 29.500 MHz
KITSAT 1 19 Apr 07:01:53 07:03:28 11° 344° (NNW) 07:05:03 435.175 FM
Hamsat 19 Apr 07:04:44 07:09:06 74° 102° (ESE) 07:13:27 145.90 MHz
MaSat-1 19 Apr 07:10:27 07:13:24 55° 64° (ENE) 07:16:52 437.345 MHz
SO-67 19 Apr 07:12:30 07:14:11 13° 92° (E) 07:15:52 435.3500 MHz FM
RS-15 19 Apr 07:17:24 07:28:47 82° 118° (ESE) 07:39:47 29.354 - 29.394 USB, Beacon 29.352 USB
JAS-2 19 Apr 07:29:10 07:34:14 39° 99° (E) 07:39:46 435.800 - 435.900 CW/SSB, 435.910 FM
STRAND 1 19 Apr 08:13:36 08:16:07 14° 269° (W) 08:18:38 ?
Sapphire 19 Apr 08:41:14 08:44:48 18° 45° (NE) 08:48:21 437.095 MHz 1200 baud AX-25 AFSK
Hamsat 19 Apr 08:43:43 08:44:28 10° 297° (WNW) 08:45:13 145.90 MHz
SO-67 19 Apr 08:44:18 08:47:27 32° 287° (WNW) 08:50:36 435.3500 MHz FM
KITSAT 1 19 Apr 09:01:54 09:03:40 11° 17° (NNE) 09:05:26 435.175 FM
JAS-2 19 Apr 09:14:47 09:19:12 27° 293° (WNW) 09:23:56 435.800 - 435.900 CW/SSB, 435.910 FM
PANSAT 19 Apr 09:16:26 09:18:07 12° 169° (S) 09:19:48 not established
PCSat 19 Apr 09:25:16 09:30:19 38° 54° (NE) 09:35:20 145.825 MHz
RS-15 19 Apr 09:32:41 09:42:24 33° 323° (NW) 09:51:59 29.354 - 29.394 USB, Beacon 29.352 USB
HO-68 19 Apr 09:38:42 09:45:34 46° 100° (E) 09:52:23 435.675 MHz FM
Saudisat 1A 19 Apr 09:56:33 09:57:40 11° 107° (ESE) 09:58:47 436.775 MHz
Oscar 11 19 Apr 10:15:19 10:19:24 39° 98° (E) 10:23:29 145.825 FM, Beacon 2401.500 USB
Sapphire 19 Apr 10:23:26 10:28:52 78° 244° (WSW) 10:34:15 437.095 MHz 1200 baud AX-25 AFSK
KITSAT 1 19 Apr 10:55:14 11:02:17 31° 44° (NE) 11:09:15 435.175 FM
PANSAT 19 Apr 10:55:19 10:57:39 15° 182° (S) 10:59:58 not established
PCSat 19 Apr 11:08:57 11:13:35 30° 251° (WSW) 11:18:12 145.825 MHz
HO-68 19 Apr 11:26:45 11:33:02 34° 297° (WNW) 11:39:19 435.675 MHz FM
Saudisat 1A 19 Apr 11:32:11 11:36:38 74° 303° (WNW) 11:41:07 436.775 MHz
FUNcube-1 19 Apr 11:40:39 11:44:54 73° 284° (WNW) 11:49:14 145.950 - 145.970 MHz USB
Oscar 11 19 Apr 11:52:18 11:55:18 19° 294° (WNW) 11:58:18 145.825 FM, Beacon 2401.500 USB
RS-15 19 Apr 11:52:53 11:59:40 18° 358° (N) 12:06:27 29.354 - 29.394 USB, Beacon 29.352 USB
PANSAT 19 Apr 12:36:51 12:37:08 10° 195° (SSW) 12:37:24 not established
KITSAT 1 19 Apr 12:50:15 12:58:16 67° 245° (WSW) 13:06:12 435.175 FM
AO-27 19 Apr 12:58:38 13:02:12 19° 63° (ENE) 13:05:47 436.795 MHz FM
ITAMSAT 1 19 Apr 13:08:51 13:12:51 23° 65° (ENE) 13:16:51 435.822 SSB
Oscar 19 19 Apr 13:12:49 13:17:41 46° 71° (ENE) 13:22:37 437.125 CW, 437.150 USB
Saudisat 1A 19 Apr 13:15:37 13:17:02 11° 322° (NW) 13:18:27 436.775 MHz
AO-Echo 19 Apr 13:16:51 13:20:47 22° 66° (ENE) 13:24:38 ?
Oscar 16 19 Apr 13:20:54 13:25:56 59° 73° (ENE) 13:31:00 437.025 USB, Beacon 2401.1428
TMSAT-1 19 Apr 13:42:21 13:42:34 10° 58° (ENE) 13:42:47 436.925 FM
Uribyol 2 19 Apr 13:55:56 14:01:03 67° 74° (ENE) 14:06:10 436.500 FM
AO-7 19 Apr 14:05:05 14:07:50 12° 45° (NE) 14:10:35 29.400 - 29.500 MHz
RS-15 19 Apr 14:07:58 14:17:13 30° 34° (NNE) 14:26:32 29.354 - 29.394 USB, Beacon 29.352 USB
JAS-1B 19 Apr 14:21:28 14:26:43 20° 62° (ENE) 14:31:26 435.800 - 435.900 CW/SSB
OPAL 19 Apr 14:27:52 14:30:37 14° 93° (E) 14:33:21 ?
Gurwin Techsat 1B 19 Apr 14:28:32 14:33:26 40° 70° (ENE) 14:38:22 435.225 FM
AO-27 19 Apr 14:36:14 14:41:18 53° 260° (W) 14:46:23 436.795 MHz FM
Oscar 10/S400 19 Apr 14:45:57 15:45:48 16° 273° (W) 17:18:19 145.825 - 145.975 CW/USB, Beacon 145.810 USB
ISS 19 Apr 14:46:48 14:49:42 28° 134° (SE) 14:52:36 145.800 FM
ITAMSAT 1 19 Apr 14:47:10 14:52:04 42° 261° (W) 14:56:59 435.822 SSB
KITSAT 1 19 Apr 14:50:44 14:52:06 11° 263° (W) 14:53:29 435.175 FM
Oscar 19 19 Apr 14:53:30 14:57:15 20° 267° (W) 15:01:01 437.125 CW, 437.150 USB
AO-Echo 19 Apr 14:54:12 14:59:14 46° 261° (W) 15:04:11 ?
Oscar 16 19 Apr 15:02:40 15:05:40 16° 269° (W) 15:08:41 437.025 USB, Beacon 2401.1428
Uosat F 19 Apr 15:13:28 15:17:40 27° 67° (ENE) 15:21:52 435.120 FM
TMSAT-1 19 Apr 15:16:18 15:21:35 79° 75° (ENE) 15:26:53 436.925 FM
Uribyol 2 19 Apr 15:38:25 15:40:58 14° 269° (W) 15:43:32 436.500 FM
SO-50 19 Apr 15:49:16 15:53:45 90° 299° (WNW) 15:58:17 436.795 FM
AO-7 19 Apr 15:50:49 15:58:48 56° 66° (ENE) 16:06:49 29.400 - 29.500 MHz
OPAL 19 Apr 16:04:44 16:09:56 68° 288° (WNW) 16:15:06 ?
JAS-1B 19 Apr 16:08:31 16:16:50 78° 256° (WSW) 16:23:45 435.800 - 435.900 CW/SSB
Gurwin Techsat 1B 19 Apr 16:09:13 16:13:30 25° 266° (W) 16:17:49 435.225 FM
RS-15 19 Apr 16:20:10 16:31:11 89° 60° (ENE) 16:42:30 29.354 - 29.394 USB, Beacon 29.352 USB
ISS 19 Apr 16:23:17 16:26:22 34° 330° (NNW) 16:29:28 145.800 FM
UOSAT-12 19 Apr 16:34:22 16:36:41 14° 108° (ESE) 16:39:02 437.025 FM, 437.400 FM
Uosat F 19 Apr 16:51:48 16:56:19 33° 263° (W) 17:00:52 435.120 FM
TMSAT-1 19 Apr 17:00:11 17:02:05 12° 271° (W) 17:03:58 436.925 FM
SO-50 19 Apr 17:32:51 17:34:59 13° 320° (NW) 17:37:08 436.795 FM
JAS-2 19 Apr 17:43:36 17:46:38 15° 62° (ENE) 17:49:33 435.800 - 435.900 CW/SSB, 435.910 FM
AO-7 19 Apr 17:44:45 17:51:53 32° 263° (W) 17:59:04 29.400 - 29.500 MHz
Hamsat 19 Apr 17:57:29 18:01:29 45° 73° (ENE) 18:05:33 145.90 MHz
ISS 19 Apr 18:02:25 18:03:54 12° 350° (N) 18:05:24 145.800 FM
JAS-1B 19 Apr 18:05:03 18:07:59 12° 269° (W) 18:10:46 435.800 - 435.900 CW/SSB
UOSAT-12 19 Apr 18:11:46 18:16:16 62° 304° (NW) 18:20:54 437.025 FM, 437.400 FM
Saudisat 1A 19 Apr 18:23:08 18:23:51 10° 37° (NE) 18:24:35 436.775 MHz
RS-15 19 Apr 18:34:31 18:42:03 22° 259° (W) 18:49:47 29.354 - 29.394 USB, Beacon 29.352 USB
STRAND 1 19 Apr 18:43:36 18:47:39 24° 95° (E) 18:51:41 ?
SO-67 19 Apr 19:16:43 19:20:10 68° 76° (ENE) 19:23:40 435.3500 MHz FM
JAS-2 19 Apr 19:25:21 19:31:16 72° 257° (WSW) 19:36:39 435.800 - 435.900 CW/SSB, 435.910 FM
Hamsat 19 Apr 19:35:33 19:37:44 14° 269° (W) 19:39:56 145.90 MHz
ISS 19 Apr 19:40:18 19:41:49 13° 11° (N) 19:43:21 145.800 FM
UOSAT-12 19 Apr 19:56:35 19:57:24 10° 324° (NW) 19:58:14 437.025 FM, 437.400 FM
Saudisat 1A 19 Apr 19:59:54 20:04:19 68° 57° (ENE) 20:08:39 436.775 MHz
HO-68 19 Apr 20:06:52 20:13:00 33° 62° (ENE) 20:19:09 435.675 MHz FM
STRAND 1 19 Apr 20:22:14 20:26:57 39° 290° (WNW) 20:31:38 ?
Oscar 11 19 Apr 21:09:57 21:13:37 28° 69° (ENE) 21:17:18 145.825 FM, Beacon 2401.500 USB
MaSat-1 19 Apr 21:13:35 21:16:17 31° 112° (ESE) 21:18:43 437.345 MHz
ISS 19 Apr 21:16:13 21:19:21 35° 30° (NNE) 21:22:27 145.800 FM
Saudisat 1A 19 Apr 21:41:52 21:43:19 11° 253° (WSW) 21:44:45 436.775 MHz
HO-68 19 Apr 21:53:36 22:00:25 48° 260° (W) 22:07:18 435.675 MHz FM
FUNcube-1 19 Apr 22:36:28 22:40:40 81° 76° (ENE) 22:44:51 145.950 - 145.970 MHz USB
SO-50 19 Apr 22:43:49 22:44:49 11° 37° (NE) 22:45:48 436.795 FM
Oscar 11 19 Apr 22:46:18 22:49:47 24° 265° (W) 22:53:17 145.825 FM, Beacon 2401.500 USB
ISS 19 Apr 22:53:07 22:56:00 27° 226° (SW) 22:58:53 145.800 FM
Sapphire 19 Apr 23:23:53 23:26:49 15° 104° (ESE) 23:29:45 437.095 MHz 1200 baud AX-25 AFSK
PCSat 20 Apr 00:06:16 00:11:16 40° 111° (ESE) 00:16:17 145.825 MHz
SO-50 20 Apr 00:21:39 00:26:17 64° 56° (NE) 00:30:58 436.795 FM
Oscar 10/S400 20 Apr 00:48:49 00:57:55 14° 130° (SE) 01:09:35 145.825 - 145.975 CW/USB, Beacon 145.810 USB
UOSAT-12 20 Apr 01:03:30 01:06:00 14° 40° (NE) 01:08:29 437.025 FM, 437.400 FM
Sapphire 20 Apr 01:04:12 01:09:35 70° 300° (WNW) 01:15:01 437.095 MHz 1200 baud AX-25 AFSK
KITSAT 1 20 Apr 01:25:05 01:30:26 20° 102° (ESE) 01:35:47 435.175 FM
Oscar 19 20 Apr 01:26:19 01:29:43 17° 92° (E) 01:33:07 437.125 CW, 437.150 USB
Oscar 16 20 Apr 01:34:10 01:38:13 23° 94° (E) 01:42:14 437.025 USB, Beacon 2401.1428
OPAL 20 Apr 01:41:31 01:45:29 24° 63° (ENE) 01:49:31 ?
PCSat 20 Apr 01:50:04 01:54:45 30° 309° (NW) 01:59:29 145.825 MHz
SO-50 20 Apr 02:03:56 02:06:20 14° 252° (WSW) 02:08:46 436.795 FM
Uribyol 2 20 Apr 02:10:07 02:14:22 25° 95° (E) 02:18:36 436.500 FM
UOSAT-12 20 Apr 02:42:06 02:46:51 88° 58° (ENE) 02:51:32 437.025 FM, 437.400 FM
Gurwin Techsat 1B 20 Apr 02:46:37 02:49:58 17° 92° (E) 02:53:18 435.225 FM
AO-27 20 Apr 02:49:59 02:55:07 59° 101° (E) 03:00:12 436.795 MHz FM
Sapphire 20 Apr 02:51:44 02:54:02 13° 320° (NW) 02:56:19 437.095 MHz 1200 baud AX-25 AFSK
ITAMSAT 1 20 Apr 03:00:31 03:05:42 74° 103° (ESE) 03:10:52 435.822 SSB
AO-Echo 20 Apr 03:02:22 03:07:07 61° 101° (E) 03:11:45 ?
Oscar 19 20 Apr 03:04:18 03:09:23 54° 288° (WNW) 03:14:25 437.125 CW, 437.150 USB
Oscar 16 20 Apr 03:12:50 03:17:43 42° 290° (WNW) 03:22:34 437.025 USB, Beacon 2401.1428
KITSAT 1 20 Apr 03:16:42 03:24:49 84° 300° (WNW) 03:33:00 435.175 FM
OPAL 20 Apr 03:19:25 03:24:07 40° 260° (W) 03:28:55 ?
TMSAT-1 20 Apr 03:33:23 03:38:08 33° 97° (E) 03:42:52 436.925 FM
Uribyol 2 20 Apr 03:49:10 03:53:54 37° 291° (WNW) 03:58:38 436.500 FM
AO-7 20 Apr 03:55:04 04:00:09 17° 91° (E) 04:05:12 29.400 - 29.500 MHz
JAS-1B 20 Apr 03:55:15 03:59:51 25° 95° (E) 04:04:39 435.800 - 435.900 CW/SSB
Gurwin Techsat 1B 20 Apr 04:25:05 04:30:18 58° 287° (WNW) 04:35:29 435.225 FM
